CDC8987 ZJHK-ZSSS

Flight info

Callsign CDC8987
Flight time N/A
Altitude 35100
Route SAMAS J200 P469 H81 GYA A599 POU G471 XEBUL H22 UPNUG W76 AREPI B221 SHZ G204 JTN
Aircraft A21N/M-SDE2E3FGHIRWXY/LB1

Departure

Time 2026-05-08 08:46
Airport Haikou Meilan International Airport (ZJHK)

Arrival

Time N/A
Airport Shanghai Hongqiao International Airport (ZSSS)
Time Latitude Longitude Altitude Speed Heading
2026-05-08 08:23 19.94872 110.46159 82 ft 0 kts 302°
2026-05-08 08:35 19.94869 110.46165 82 ft 1 kts 302°
2026-05-08 08:35 19.94861 110.46178 82 ft 2 kts 302°
2026-05-08 08:35 19.94851 110.46195 82 ft 3 kts 302°
2026-05-08 08:36 19.94836 110.46208 82 ft 3 kts 360°
2026-05-08 08:36 19.94844 110.46221 82 ft 9 kts 46°
2026-05-08 08:36 19.94915 110.46269 82 ft 12 kts 359°
2026-05-08 08:36 19.95001 110.46268 82 ft 12 kts 359°
2026-05-08 08:37 19.95089 110.46267 82 ft 12 kts 352°
2026-05-08 08:37 19.95122 110.46209 82 ft 9 kts 270°
2026-05-08 08:37 19.95123 110.46133 82 ft 10 kts 270°
2026-05-08 08:37 19.95123 110.46053 82 ft 11 kts 269°
2026-05-08 08:38 19.95122 110.45966 82 ft 11 kts 269°
2026-05-08 08:38 19.95121 110.45877 82 ft 12 kts 270°
2026-05-08 08:38 19.95121 110.45785 82 ft 12 kts 270°
2026-05-08 08:38 19.95121 110.45689 82 ft 13 kts 270°
2026-05-08 08:39 19.95120 110.45591 82 ft 13 kts 269°
2026-05-08 08:39 19.95119 110.45490 82 ft 13 kts 269°
2026-05-08 08:39 19.95119 110.45388 82 ft 14 kts 270°
2026-05-08 08:39 19.95119 110.45282 82 ft 14 kts 269°
2026-05-08 08:40 19.95119 110.45176 82 ft 14 kts 270°
2026-05-08 08:40 19.95119 110.45068 82 ft 14 kts 270°
2026-05-08 08:40 19.95146 110.44985 82 ft 11 kts 344°
2026-05-08 08:40 19.95204 110.44985 82 ft 8 kts 359°
2026-05-08 08:41 19.95253 110.44984 82 ft 0 kts 359°
2026-05-08 08:44 19.95284 110.44984 82 ft 11 kts 360°
2026-05-08 08:45 19.95370 110.44997 82 ft 5 kts 50°
2026-05-08 08:45 19.95373 110.45009 82 ft 0 kts 89°
2026-05-08 08:45 19.95373 110.45096 82 ft 39 kts 90°
2026-05-08 08:45 19.95374 110.45641 82 ft 106 kts 89°
2026-05-08 08:46 19.95378 110.46639 82 ft 161 kts 89°
2026-05-08 08:46 19.95381 110.47893 463 ft 172 kts 91°
2026-05-08 08:46 19.95510 110.49127 1087 ft 170 kts 66°
2026-05-08 08:46 19.96220 110.50114 1670 ft 173 kts 39°
2026-05-08 08:47 19.97234 110.50861 2174 ft 184 kts 35°
2026-05-08 08:47 19.98336 110.51626 2581 ft 198 kts 34°
2026-05-08 08:47 19.99546 110.52450 2957 ft 215 kts 33°
2026-05-08 08:47 20.00879 110.53352 3261 ft 237 kts 33°
2026-05-08 08:48 20.02310 110.54316 3798 ft 247 kts 33°
2026-05-08 08:48 20.03748 110.55285 4584 ft 246 kts 33°
2026-05-08 08:48 20.05176 110.56248 5290 ft 248 kts 33°
2026-05-08 08:48 20.06641 110.57239 5958 ft 252 kts 33°
2026-05-08 08:49 20.08133 110.58247 6652 ft 254 kts 32°
2026-05-08 08:49 20.09666 110.59184 7256 ft 258 kts 20°
2026-05-08 08:49 20.11444 110.59439 7780 ft 264 kts 353°
2026-05-08 08:49 20.13130 110.59069 8090 ft 277 kts 346°
2026-05-08 08:50 20.14481 110.58699 8358 ft 286 kts 345°
2026-05-08 08:50 20.16409 110.58173 8923 ft 289 kts 345°
2026-05-08 08:50 20.18357 110.57655 9518 ft 291 kts 345°
2026-05-08 08:50 20.20353 110.57140 10098 ft 293 kts 346°
2026-05-08 08:51 20.22343 110.56632 10490 ft 302 kts 346°
2026-05-08 08:51 20.24468 110.56093 10734 ft 316 kts 346°
2026-05-08 08:51 20.26634 110.55544 10970 ft 329 kts 346°
2026-05-08 08:51 20.28921 110.54964 11193 ft 342 kts 346°
2026-05-08 08:52 20.31307 110.54359 11432 ft 356 kts 345°
2026-05-08 08:52 20.33753 110.53739 11672 ft 370 kts 346°
2026-05-08 08:52 20.35099 110.53398 11797 ft 377 kts 345°
2026-05-08 08:52 20.37686 110.52742 12016 ft 390 kts 346°
2026-05-08 08:53 20.40364 110.52064 12231 ft 402 kts 346°
2026-05-08 08:53 20.43126 110.51363 12475 ft 413 kts 345°
2026-05-08 08:53 20.45955 110.50645 12901 ft 417 kts 345°
2026-05-08 08:53 20.48796 110.50060 13379 ft 420 kts 351°
2026-05-08 08:54 20.51730 110.49811 13849 ft 424 kts 357°
2026-05-08 08:54 20.54682 110.49921 14282 ft 427 kts
2026-05-08 08:54 20.57676 110.50231 14714 ft 430 kts
2026-05-08 08:54 20.60669 110.50583 15123 ft 433 kts
2026-05-08 08:55 20.63695 110.50943 15530 ft 436 kts
2026-05-08 08:55 20.66700 110.51298 15924 ft 439 kts
2026-05-08 08:55 20.69742 110.51653 16301 ft 442 kts
2026-05-08 08:55 20.72825 110.52009 16671 ft 446 kts
2026-05-08 08:56 20.75930 110.52364 17024 ft 449 kts
2026-05-08 08:56 20.79070 110.52723 17384 ft 452 kts
2026-05-08 08:56 20.82205 110.53082 17752 ft 454 kts
2026-05-08 08:56 20.85367 110.53443 18120 ft 456 kts
2026-05-08 08:57 20.88499 110.53801 18475 ft 458 kts
2026-05-08 08:57 20.91696 110.54165 18842 ft 459 kts
2026-05-08 08:57 20.94889 110.54530 19207 ft 460 kts
2026-05-08 08:57 20.98052 110.54893 19551 ft 462 kts
2026-05-08 08:58 21.01292 110.55263 19901 ft 463 kts
2026-05-08 08:58 21.04490 110.55629 20237 ft 464 kts
2026-05-08 08:58 21.07698 110.55997 20574 ft 465 kts
2026-05-08 08:58 21.10906 110.56365 20903 ft 466 kts
2026-05-08 08:59 21.14167 110.56741 21233 ft 466 kts
2026-05-08 08:59 21.17409 110.57114 21555 ft 467 kts
2026-05-08 08:59 21.20610 110.57481 21853 ft 468 kts
2026-05-08 08:59 21.23882 110.57855 22137 ft 469 kts
2026-05-08 09:00 21.27124 110.58221 22414 ft 471 kts
2026-05-08 09:00 21.30401 110.58591 22707 ft 472 kts
2026-05-08 09:00 21.33650 110.59126 22916 ft 476 kts 12°
2026-05-08 09:00 21.36773 110.60387 23131 ft 481 kts 25°
2026-05-08 09:01 21.39560 110.62349 23397 ft 485 kts 37°
2026-05-08 09:01 21.42006 110.64863 23766 ft 485 kts 44°
2026-05-08 09:01 21.44341 110.67460 24145 ft 483 kts 45°
2026-05-08 09:01 21.46658 110.70064 24483 ft 482 kts 45°
2026-05-08 09:02 21.48989 110.72673 24808 ft 482 kts 44°
2026-05-08 09:02 21.51298 110.75242 25115 ft 482 kts 45°
2026-05-08 09:02 21.53616 110.77810 25375 ft 482 kts 44°
2026-05-08 09:02 21.55946 110.80386 25653 ft 482 kts 44°
2026-05-08 09:03 21.58309 110.82999 25956 ft 482 kts 44°
2026-05-08 09:03 21.60647 110.85583 26233 ft 482 kts 44°
2026-05-08 09:03 21.62981 110.88158 26491 ft 482 kts 44°
2026-05-08 09:03 21.65324 110.90743 26750 ft 483 kts 45°
2026-05-08 09:04 21.67649 110.93312 27025 ft 483 kts 45°
2026-05-08 09:04 21.69985 110.95893 27289 ft 483 kts 45°
2026-05-08 09:04 21.72331 110.98489 27544 ft 483 kts 45°
2026-05-08 09:04 21.74669 111.01080 27793 ft 483 kts 45°
2026-05-08 09:05 21.76985 111.03646 28037 ft 484 kts 45°
2026-05-08 09:05 21.79331 111.06249 28277 ft 484 kts 45°
2026-05-08 09:05 21.81677 111.08854 28532 ft 484 kts 45°
2026-05-08 09:05 21.84019 111.11457 28779 ft 485 kts 45°
2026-05-08 09:06 21.86369 111.14070 29048 ft 485 kts 45°
2026-05-08 09:06 21.88690 111.16653 29371 ft 483 kts 45°
2026-05-08 09:06 21.91019 111.19241 29690 ft 482 kts 45°
2026-05-08 09:06 21.93372 111.21855 30005 ft 481 kts 45°
2026-05-08 09:07 21.95672 111.24413 30283 ft 481 kts 45°
2026-05-08 09:07 21.98007 111.27013 30547 ft 481 kts 45°
2026-05-08 09:07 22.00325 111.29596 30847 ft 480 kts 45°
2026-05-08 09:07 22.02660 111.32185 31174 ft 478 kts 44°
2026-05-08 09:08 22.04979 111.34697 31488 ft 476 kts 44°
2026-05-08 09:08 22.07331 111.37225 31775 ft 476 kts 43°
2026-05-08 09:08 22.09667 111.39738 32034 ft 475 kts 43°
2026-05-08 09:08 22.11996 111.42248 32260 ft 476 kts 43°
2026-05-08 09:09 22.14314 111.44752 32496 ft 476 kts 43°
2026-05-08 09:09 22.16674 111.47306 32788 ft 475 kts 43°
2026-05-08 09:09 22.19004 111.49828 33054 ft 475 kts 43°
2026-05-08 09:09 22.21302 111.52319 33349 ft 473 kts 43°
2026-05-08 09:10 22.23638 111.54856 33623 ft 473 kts 43°
2026-05-08 09:10 22.25936 111.57352 33838 ft 473 kts 43°
2026-05-08 09:10 22.28272 111.59890 34016 ft 474 kts 43°
2026-05-08 09:10 22.30585 111.62405 34168 ft 476 kts 42°
2026-05-08 09:11 22.32906 111.64928 34327 ft 476 kts 42°
2026-05-08 09:11 22.35232 111.67456 34479 ft 477 kts 43°
2026-05-08 09:11 22.37558 111.70001 34607 ft 478 kts 43°
2026-05-08 09:11 22.39887 111.72593 34730 ft 479 kts 44°
2026-05-08 09:12 22.42159 111.75140 34873 ft 479 kts 44°
2026-05-08 09:12 22.44438 111.77702 35012 ft 479 kts 43°
2026-05-08 09:12 22.49003 111.82833 35081 ft 481 kts 43°
2026-05-08 09:13 22.53582 111.87977 35076 ft 481 kts 43°
2026-05-08 09:13 22.58126 111.93082 35066 ft 482 kts 43°
2026-05-08 09:14 22.62743 111.98275 35062 ft 483 kts 43°
2026-05-08 09:14 22.67356 112.03468 35065 ft 484 kts 43°
2026-05-08 09:15 22.72039 112.08732 35071 ft 485 kts 43°
2026-05-08 09:15 22.76702 112.13985 35061 ft 485 kts 43°
2026-05-08 09:16 22.81386 112.19276 35052 ft 486 kts 42°
2026-05-08 09:16 22.86072 112.24571 35045 ft 487 kts 42°
2026-05-08 09:17 22.90731 112.29848 35044 ft 487 kts 42°
2026-05-08 09:17 22.95411 112.35153 35046 ft 488 kts 42°
2026-05-08 09:18 23.00093 112.40491 35059 ft 491 kts 43°
2026-05-08 09:18 23.04024 112.46597 35039 ft 500 kts 60°
2026-05-08 09:19 23.06216 112.53719 35038 ft 506 kts 78°
2026-05-08 09:19 23.06456 112.61349 35046 ft 509 kts 93°
2026-05-08 09:20 23.05827 112.68945 35036 ft 509 kts 95°
2026-05-08 09:20 23.05210 112.76487 35034 ft 509 kts 94°
2026-05-08 09:21 23.04644 112.84066 35034 ft 509 kts 94°